Theta_e
313 313 313 312 310 308 303 290 287 299 297 287 284 283 286 293 291 294 291 289 286 284 284 282 281 283 287 296 293 288 290 284 283 287 296 298 295 293 290 288 288 288 291 294
313 313 312 311 309 308 301 289 287 297 294 281 281 285 288 291 290 291 291 290 290 289 284 281 283 286 294 297 292 289 289 284 279 283 287 292 290 291 287 287 285 289 290 293
313 313 312 310 309 309 296 288 285 288 288 286 282 286 284 286 294 292 292 291 290 288 286 287 283 285 292 295 294 300 295 282 281 279 283 288 287 290 290 286 284 286 292 295
312 312 312 311 309 308 296 288 284 286 282 285 289 284 285 286 287 291 292 289 290 288 284 284 283 286 287 291 296 294 288 280 283 286 289 289 289 289 291 288 288 286 292 295
312 312 313 312 310 306 293 287 287 289 287 287 289 285 286 287 289 289 288 286 290 289 286 286 283 285 283 284 290 287 288 279 282 282 288 289 287 290 293 292 292 291 293 294
312 312 312 312 311 304 292 294 296 295 292 290 288 288 289 289 291 293 293 292 289 286 288 291 291 291 288 286 286 285 286 284 283 278 286 286 285 290 294 295 295 297 294 299
311 312 312 312 312 307 301 300 299 293 288 290 290 291 292 291 291 290 293 293 291 292 294 293 291 289 289 289 288 288 285 285 284 281 282 279 291 299 300 295 295 296 296 298
311 312 312 312 312 311 305 303 299 294 288 291 292 293 292 292 292 291 291 292 293 295 291 284 280 279 279 284 288 285 287 286 283 280 280 287 293 295 293 292 293 297 295 297
312 312 312 313 312 312 308 305 304 297 291 291 294 292 292 289 288 288 290 294 293 294 290 287 280 278 283 282 283 285 287 287 284 286 278 283 293 295 297 299 290 298 297 295
312 312 313 313 312 312 308 304 305 299 292 295 295 292 291 294 292 289 288 291 289 289 284 284 282 282 285 281 281 281 283 285 281 283 282 287 292 294 297 291 290 298 297 296
312 313 313 313 313 313 308 303 305 301 295 293 296 297 295 295 294 289 289 286 286 287 284 283 284 284 286 284 285 285 284 283 283 285 281 282 293 293 290 292 296 298 298 297
313 313 314 313 313 313 310 304 307 306 298 296 298 302 303 302 301 296 295 291 291 291 285 286 288 285 286 284 281 290 283 286 286 285 285 293 295 294 298 299 297 298 299 300
313 313 313 313 313 313 309 305 305 303 297 292 291 298 304 302 304 305 293 295 297 293 292 289 287 285 287 283 283 286 289 292 287 288 291 292 295 299 300 300 299 301 302 303
313 313 313 313 314 313 307 300 300 297 291 288 291 301 296 301 303 305 303 301 300 293 290 286 286 285 290 286 288 287 289 291 288 288 292 293 296 298 299 300 302 303 305 305
312 312 312 313 313 311 305 299 299 297 294 288 293 297 297 296 298 299 298 295 292 292 289 287 287 291 288 289 289 287 291 288 287 286 292 293 294 299 302 301 302 305 305 305
312 312 313 313 312 311 307 296 298 299 298 289 288 299 299 300 296 295 294 295 292 292 291 289 290 293 291 285 285 291 295 295 296 293 297 298 299 300 301 301 303 304 305 306
311 312 312 312 311 303 300 294 299 303 297 289 287 290 301 302 296 293 294 294 292 291 290 290 290 290 290 287 283 292 295 296 296 298 298 295 298 296 300 301 303 305 306 308
311 310 309 310 309 304 298 300 306 301 294 291 286 289 292 301 296 294 292 291 291 292 292 293 290 292 289 285 291 294 296 297 296 297 298 298 298 299 299 301 301 304 304 306
311 311 310 304 300 297 299 308 308 303 298 293 292 290 289 296 298 296 294 293 289 292 289 290 290 286 284 289 291 293 295 296 295 296 297 297 296 297 297 297 298 299 302 304
310 304 302 303 302 309 306 298 299 299 298 296 290 296 292 294 296 295 294 294 288 287 290 294 287 285 291 292 294 295 296 298 297 293 293 294 294 295 296 296 297 298 299 303
300 299 301 300 308 300 301 298 296 295 292 294 294 294 293 297 295 294 296 292 291 287 289 287 284 285 289 294 294 296 296 299 298 298 298 297 297 296 296 296 297 297 298 300
303 302 302 300 300 299 293 290 290 292 290 292 293 292 295 299 301 296 296 293 293 284 292 282 273 288 292 293 294 295 295 298 298 299 297 297 297 297 297 297 296 297 298 299
303 301 298 302 295 284 285 282 286 287 290 291 291 291 299 299 297 296 294 291 288 289 281 275 283 289 292 292 293 294 293 297 299 298 298 297 297 297 297 296 297 297 297 298
300 302 290 293 289 290 290 289 289 292 291 291 289 291 294 293 295 293 286 287 287 281 274 279 285 288 291 292 292 291 290 294 296 298 298 297 296 295 296 297 297 297 295 296
300 300 288 292 294 292 293 293 292 293 291 289 293 292 290 288 288 286 286 284 278 279 278 283 288 290 290 291 290 291 290 292 293 295 297 297 296 295 294 296 297 297 297 297
302 300 295 294 291 292 291 292 292 292 290 289 289 287 287 286 286 285 284 283 277 281 284 287 288 291 291 289 290 291 291 291 291 293 294 297 297 295 295 296 296 297 297 298
301 297 296 295 294 294 294 293 294 292 290 287 287 285 286 288 284 283 283 282 284 285 287 287 288 290 291 291 289 291 292 290 289 289 289 290 295 297 296 295 295 296 297 297
Wind_Speed
19 19 19 18 21 22 7 4 4 6 9 7 3 2 5 5 4 4 5 3 3 2 3 3 3 6 3 4 2 2 1 4 5 10 6 5 4 3 3 3 6 4 5 12
18 18 18 16 15 12 4 3 3 6 5 5 4 6 5 3 5 5 6 6 5 5 3 4 1 2 3 5 3 4 4 1 3 9 3 5 5 2 5 4 3 7 8 6
18 17 15 14 13 9 4 3 5 5 6 1 3 6 3 5 6 3 3 3 5 6 5 0 5 3 2 1 3 5 3 2 5 6 1 4 6 7 3 2 1 6 6 5
17 16 14 12 11 7 4 4 0 3 4 5 5 1 3 5 6 5 1 2 2 2 3 4 5 2 6 5 6 4 4 4 4 11 13 11 14 19 10 6 10 5 7 5
16 15 13 11 9 5 4 3 2 1 1 2 5 3 3 7 4 3 5 3 4 6 5 7 6 4 2 6 3 3 3 3 1 10 10 14 16 15 12 12 15 14 17 21
15 14 12 10 6 5 2 1 1 0 2 3 3 3 3 5 11 5 5 7 6 5 9 7 8 11 8 6 5 4 4 2 2 7 5 5 7 11 8 10 9 6 5 5
14 13 13 10 4 4 2 1 1 1 1 2 3 4 9 10 9 9 9 8 5 6 5 9 7 9 15 13 16 9 7 5 3 7 6 6 2 9 12 15 13 13 11 14
14 13 12 10 4 7 2 2 2 1 1 3 6 8 5 8 8 6 6 5 4 5 3 4 5 2 2 12 16 14 10 7 4 4 4 5 5 8 8 7 9 12 14 16
14 13 10 8 3 4 2 2 2 2 1 3 5 5 6 4 5 5 4 5 4 4 1 2 3 3 3 4 3 7 7 5 4 3 4 6 7 13 13 13 4 11 14 16
14 12 10 6 2 4 3 1 3 2 1 3 2 3 2 2 2 4 5 7 7 3 3 3 3 3 2 3 9 9 8 4 8 9 4 3 11 22 18 8 3 10 10 13
12 11 9 5 0 6 4 1 3 2 1 5 3 2 3 2 2 2 4 5 4 3 5 3 3 3 4 3 5 5 4 4 5 5 6 6 16 9 8 7 11 9 10 10
10 9 8 2 4 7 4 2 1 1 1 4 2 6 6 4 5 2 2 2 2 2 3 2 4 3 4 10 5 6 3 3 1 3 2 6 10 11 9 6 7 9 12 12
9 9 6 2 6 8 3 2 2 1 2 5 3 3 2 0 2 2 0 0 2 2 1 2 2 4 4 4 4 4 3 5 2 3 2 10 11 6 11 10 10 12 13 14
8 7 5 5 6 8 5 2 2 3 2 0 4 2 3 5 1 3 3 2 3 1 1 2 2 3 5 4 5 3 4 9 7 4 5 15 7 15 13 15 12 11 11 12
8 3 2 5 8 6 3 2 2 2 3 2 4 3 3 1 4 5 4 2 1 2 3 3 4 3 4 4 4 3 8 4 4 3 11 8 12 14 16 14 13 11 10 11
5 2 5 6 6 4 1 2 1 3 3 2 3 2 2 1 4 6 5 3 2 2 2 2 2 2 4 3 3 8 8 16 10 4 13 7 10 12 15 14 17 14 12 11
3 1 4 7 8 2 1 4 3 5 3 2 4 4 1 1 2 2 2 4 3 3 2 2 2 1 3 2 4 13 13 10 16 12 12 8 12 10 14 13 14 16 15 11
3 1 2 5 6 3 2 2 7 4 3 2 1 4 2 5 1 1 1 2 2 3 1 1 2 2 2 3 12 10 10 8 15 15 11 10 10 12 14 13 14 13 11 11
4 3 2 2 2 1 2 4 5 1 2 2 1 2 3 1 1 2 1 1 2 1 2 0 1 3 3 5 9 10 9 8 11 15 11 10 12 13 15 17 16 13 12 9
3 2 1 2 1 3 3 0 1 2 2 1 3 1 3 2 1 2 2 1 3 2 0 0 3 3 5 7 7 7 7 5 9 14 17 15 15 16 16 15 13 13 14 13
1 1 2 1 3 2 2 1 1 0 3 3 4 5 3 1 1 1 0 1 0 1 2 2 1 3 4 7 9 7 6 1 4 5 10 11 12 12 13 14 16 16 16 15
3 2 2 1 1 1 1 3 2 3 4 3 3 4 5 2 2 2 3 2 2 1 1 4 3 4 5 5 8 8 6 2 3 3 7 10 12 12 12 13 14 14 15 16
2 1 1 1 1 5 2 3 5 4 3 3 2 2 2 0 1 1 1 1 2 3 3 1 5 4 6 4 5 8 5 2 4 3 1 3 7 9 11 12 13 15 16 16
2 2 5 3 3 4 4 5 5 6 4 4 1 2 3 2 2 1 3 0 3 3 3 3 3 5 6 6 3 3 7 5 1 5 3 2 2 4 5 7 9 10 13 14
3 3 4 5 4 4 3 2 3 4 1 1 1 1 2 2 3 3 3 3 3 3 4 4 4 6 6 6 5 7 6 5 5 0 3 3 2 0 3 3 4 5 6 7
3 3 2 2 1 4 2 2 4 1 1 1 3 2 3 3 1 3 2 2 3 4 3 4 4 5 6 6 6 5 4 3 4 4 3 4 4 2 4 5 4 4 5 6
3 5 3 3 3 5 4 4 4 1 3 1 2 4 1 0 2 1 2 4 3 4 4 2 3 5 7 7 6 5 1 2 4 4 6 4 4 2 4 6 6 6 6 6
Wind_Direction
333 336 336 338 338 346 19 357 32 322 344 52 32 58 308 295 9 346 344 356 34 52 342 288 255 200 142 157 154 110 147 146 267 251 265 344 171 247 13 231 241 242 180 241
332 333 333 337 342 11 341 15 291 328 23 66 10 325 321 310 341 30 13 15 11 1 354 318 280 355 116 145 128 163 169 303 320 310 70 36 74 54 80 237 265 221 201 256
331 331 333 339 343 5 80 39 13 347 38 54 88 5 321 341 2 77 37 8 48 13 355 192 311 310 19 88 196 196 110 182 203 225 323 359 314 299 81 97 309 311 223 247
330 328 328 336 344 9 88 26 26 180 353 2 340 24 335 344 8 1 81 72 85 10 304 324 261 255 5 318 270 65 118 205 277 268 268 265 270 281 291 201 225 217 297 290
330 331 333 336 349 26 74 91 75 11 286 7 335 30 356 335 348 296 317 198 231 278 241 234 286 314 159 252 37 85 36 279 299 287 262 234 250 262 272 245 258 232 250 277
335 335 333 332 358 70 81 285 260 59 36 331 330 3 330 321 316 259 260 316 321 277 264 248 239 250 244 231 181 149 150 199 268 262 284 256 255 231 200 101 34 320 207 285
335 335 332 331 3 148 141 182 95 47 339 321 305 279 295 302 317 301 291 281 255 237 298 295 271 238 234 225 235 181 175 185 229 274 292 212 229 11 92 115 64 18 348 332
336 332 330 332 341 176 138 149 110 137 296 255 286 310 319 314 311 273 250 271 239 313 319 315 300 242 190 230 230 188 165 173 224 250 273 313 270 36 13 333 66 26 354 349
335 330 326 329 358 175 138 167 120 145 262 246 260 305 305 319 323 318 280 309 303 350 343 282 268 246 182 223 99 147 142 133 174 222 246 214 62 353 327 281 85 19 358 348
333 330 331 328 340 163 139 143 159 122 225 273 185 269 298 284 281 281 312 325 346 22 346 283 305 292 265 253 147 161 149 169 216 243 265 279 2 334 318 216 116 349 359 340
333 334 329 319 321 161 137 148 181 156 239 277 210 277 279 253 204 289 296 0 353 331 351 323 316 301 324 307 43 125 126 183 187 212 231 239 17 334 356 329 316 339 342 326
337 331 329 338 150 164 149 98 146 125 253 270 282 271 274 241 310 254 345 288 282 322 336 338 300 321 339 340 35 29 56 302 313 244 329 342 314 314 269 308 320 320 314 312
348 343 347 53 125 146 104 104 125 92 339 309 5 4 177 210 230 207 253 352 281 341 256 292 325 336 330 352 33 315 316 340 269 281 58 318 334 291 313 321 322 310 299 297
350 355 26 90 129 134 108 128 165 104 128 12 289 346 28 326 7 182 200 283 339 83 70 36 16 335 3 335 308 332 337 308 324 299 343 343 93 285 308 314 316 301 291 287
346 332 154 136 142 140 101 118 194 156 128 247 288 301 194 359 50 57 50 66 54 28 23 27 15 11 328 310 294 353 348 321 3 318 304 282 279 302 325 334 323 321 297 293
341 119 138 138 151 135 133 2 295 196 122 80 305 354 290 186 76 49 34 33 67 73 64 12 353 262 332 351 335 349 350 356 335 334 319 312 339 342 343 329 319 311 313 287
327 105 160 158 157 107 154 193 221 152 101 86 312 299 204 162 88 27 11 19 31 75 80 18 316 8 17 309 346 348 343 5 354 351 334 345 354 339 328 327 320 312 309 292
271 130 39 167 147 41 346 285 136 112 93 109 314 274 331 183 210 210 185 105 48 30 73 330 351 312 348 351 329 333 344 349 356 353 357 343 337 347 359 352 351 346 312 303
231 193 136 54 47 30 258 177 134 139 140 274 230 251 274 196 166 123 112 120 79 119 66 359 70 335 355 286 318 333 336 14 357 349 356 354 2 11 14 6 3 359 338 308
174 55 303 274 226 189 90 13 231 211 194 233 238 255 268 145 215 137 140 153 151 116 120 40 59 280 274 287 309 310 341 6 10 3 358 357 5 4 11 18 4 359 351 340
65 201 244 259 306 355 218 268 217 308 270 200 233 219 266 222 184 176 90 108 232 105 97 121 74 295 265 303 320 329 336 52 47 343 349 358 359 2 3 12 14 7 5 1
185 178 101 112 138 210 335 253 280 204 252 213 200 226 201 233 203 147 171 176 184 85 108 80 353 251 269 310 315 323 333 290 112 20 2 7 10 7 16 12 16 17 15 14
61 97 193 7 306 15 104 324 306 319 280 238 204 275 178 31 90 141 153 85 82 108 50 221 232 266 293 311 321 328 331 329 180 144 80 7 357 353 10 23 22 23 24 18
170 206 301 173 271 244 205 200 218 240 225 294 149 220 194 180 165 176 78 30 116 80 45 255 261 262 290 308 309 317 323 326 310 172 151 102 24 338 341 12 25 36 30 22
212 152 250 222 238 245 247 242 308 260 208 55 90 33 112 31 69 33 79 37 359 171 219 236 253 284 298 307 331 323 328 335 332 20 193 188 158 358 324 326 331 3 28 36
208 228 268 243 20 288 293 220 258 273 358 130 59 70 59 39 44 47 32 68 235 256 230 247 298 305 305 306 316 311 322 336 328 1 345 280 263 270 316 320 341 338 324 323
225 259 209 184 228 223 231 199 231 164 69 82 80 55 6 43 56 354 169 194 223 236 275 279 259 275 297 309 308 318 330 48 29 358 7 349 329 308 323 321 324 332 334 340